DH0GMA Weather Reports


Display with metric or nautical units.
time (UTC)temp
F
wind
direction
speed
MPH
gust
MPH
rain 1hr
in
rain 24hr
in
rain mn
in
humidity
%
barometer
mb
20260505010627 50 344 0.0 0.0 0.00 0.01 0.00 88 1010.3
20260505005627 50 344 0.0 0.0 0.00 0.01 0.00 89 1010.3
20260505004627 51 344 0.0 0.0 0.00 0.01 0.00 88 1010.4
20260505003627 51 344 0.0 0.0 0.00 0.01 0.00 88 1010.6
20260505002627 51 344 0.0 0.0 0.00 0.01 0.00 88 1010.5
20260505001626 51 344 0.0 0.0 0.00 0.01 0.00 88 1010.5
20260505000626 51 344 0.0 0.0 0.00 0.01 0.00 88 1010.6
20260504235626 52 344 0.0 0.0 0.00 0.01 0.00 88 1010.6
20260504234626 52 344 0.0 1.0 0.00 0.01 0.00 87 1010.5
20260504233626 52 344 0.0 1.0 0.00 0.01 0.00 87 1010.7
20260504232626 52 344 0.0 0.0 0.00 0.01 0.00 87 1010.7
20260504231626 53 344 0.0 1.0 0.00 0.01 0.00 86 1010.7
20260504230625 53 344 0.0 2.0 0.00 0.01 0.00 86 1010.7
20260504225625 53 344 0.0 1.0 0.00 0.01 0.00 85 1010.7
20260504224627 54 344 0.0 0.0 0.00 0.01 0.00 85 1010.8
20260504223627 54 344 0.0 0.0 0.00 0.01 0.00 84 1010.7
20260504222627 55 344 0.0 0.0 0.00 0.01 0.00 84 1010.6
20260504221627 55 344 0.0 0.0 0.00 0.01 0.00 84 1010.8
20260504220627 55 344 0.0 1.0 0.00 0.01 0.00 83 1010.7
20260504215627 55 344 0.0 1.0 0.00 0.01 0.01 83 1010.9
20260504214627 55 344 0.0 0.0 0.00 0.01 0.01 82 1010.9
20260504213627 55 344 0.0 1.0 0.00 0.01 0.01 82 1011.0
20260504212626 56 344 0.0 0.0 0.00 0.01 0.01 82 1011.0
20260504211626 56 344 0.0 1.0 0.00 0.01 0.01 82 1011.0
20260504210626 56 344 0.0 1.0 0.00 0.01 0.01 81 1011.1
20260504205626 57 344 1.0 1.0 0.00 0.01 0.01 80 1011.1
20260504204626 57 344 0.0 2.0 0.00 0.01 0.01 80 1011.1
20260504203626 58 344 1.0 2.0 0.00 0.01 0.01 79 1011.1
20260504202626 58 339 0.0 3.0 0.00 0.01 0.01 78 1011.1
20260504201626 59 349 1.0 2.0 0.00 0.01 0.01 77 1011.2
20260504200626 59 357 0.0 4.0 0.00 0.01 0.01 76 1011.2
20260504195626 59 350 1.0 3.0 0.00 0.01 0.01 76 1011.0
20260504194625 60 347 1.0 1.0 0.00 0.01 0.01 77 1011.3
20260504193625 61 347 0.0 2.0 0.01 0.01 0.01 75 1011.2
20260504192625 61 347 1.0 3.0 0.01 0.01 0.01 74 1011.1
20260504191825 62 347 1.0 3.0 0.01 0.01 0.01 74 1011.1
20260504190825 62 320 0.0 3.0 0.01 0.01 0.01 73 1011.0
20260504190503 62 308 1.0 3.0 0.01 0.01 0.01 71 1011.0
20260504185503 63 34 0.0 1.0 0.01 0.01 0.01 72 1010.9
20260504184502 65 10 1.0 3.0 0.01 0.01 0.01 65 1010.8
20260504183503 67 276 0.0 4.0 0.00 0.00 0.00 58 1010.8
20260504182503 67 360 1.0 2.0 0.00 0.00 0.00 56 1010.4
20260504181503 67 39 0.0 1.0 0.00 0.00 0.00 55 1010.3
20260504180503 68 39 0.0 0.0 0.00 0.00 0.00 53 1010.3
20260504175503 68 39 0.0 0.0 0.00 0.00 0.00 53 1010.3
20260504174503 69 39 0.0 0.0 0.00 0.00 0.00 53 1010.3
20260504173503 69 39 0.0 0.0 0.00 0.00 0.00 52 1010.2
20260504172503 70 39 0.0 0.0 0.00 0.00 0.00 51 1010.2
20260504171502 70 39 0.0 3.0 0.00 0.00 0.00 51 1010.2
20260504170502 70 39 0.0 0.0 0.00 0.00 0.00 51 1010.2
20260504150504 72 62 1.0 7.0 0.00 0.00 0.00 49 1010.2
20260504140503 73 52 2.0 5.0 0.00 0.00 0.00 46 1010.5
20260504130502 72 52 3.0 6.0 0.00 0.00 0.00 48 1011.0
20260504110505 70 335 1.0 3.0 0.00 0.00 0.00 48 1011.9
20260504100504 69 60 1.0 4.0 0.00 0.00 0.00 51 1012.6
20260504081505 65 148 0.0 3.0 0.00 0.00 0.00 57 1013.6
20260504080505 66 147 0.0 3.0 0.00 0.00 0.00 56 1013.8
20260504050504 50 9 0.0 0.0 0.00 0.00 0.00 80 1013.9
20260504045504 50 9 0.0 0.0 0.00 0.00 0.00 80 1014.1
20260504044504 49 9 0.0 0.0 0.00 0.00 0.00 79 1013.9
20260504043504 49 9 0.0 0.0 0.00 0.00 0.00 79 1013.9
20260504042503 49 9 0.0 0.0 0.00 0.00 0.00 79 1013.9
20260504041503 49 9 0.0 0.0 0.00 0.00 0.00 78 1014.0
20260504040505 50 9 0.0 0.0 0.00 0.00 0.00 78 1014.0
20260504035505 50 9 0.0 0.0 0.00 0.00 0.00 77 1013.9
20260504034505 50 9 0.0 0.0 0.00 0.00 0.00 76 1014.0
20260504033505 51 9 0.0 0.0 0.00 0.00 0.00 75 1014.0
20260504032505 51 9 0.0 0.0 0.00 0.00 0.00 75 1013.9
20260504031505 52 9 0.0 0.0 0.00 0.00 0.00 74 1014.0
20260504030505 52 9 0.0 0.0 0.00 0.00 0.00 74 1014.1
20260504025504 52 9 0.0 0.0 0.00 0.00 0.00 74 1014.2
20260504024504 53 9 0.0 0.0 0.00 0.00 0.00 73 1014.1
20260504023504 53 9 0.0 0.0 0.00 0.00 0.00 73 1014.2
20260504022504 53 9 0.0 0.0 0.00 0.00 0.00 73 1014.1
20260504021504 53 9 0.0 0.0 0.00 0.00 0.00 72 1014.1
20260504020504 53 9 0.0 0.0 0.00 0.00 0.00 71 1014.0
20260504015504 53 9 0.0 0.0 0.00 0.00 0.00 70 1014.1
20260504014504 53 9 0.0 0.0 0.00 0.00 0.00 70 1014.0
20260504013504 53 9 0.0 0.0 0.00 0.00 0.00 70 1014.0
20260504012505 53 9 0.0 0.0 0.00 0.00 0.00 69 1014.2
20260504011504 53 9 0.0 0.0 0.00 0.00 0.00 69 1014.0